Location: Vista Encantada
(35.1109°N, 106.5681°W)
Time: 09:25:52
(UTC+00:00)

ATLAS 3B R/B - Pass Details

Date: 29 October 2020
Orbit: 1014 x 1181 km, 63.8° (Epoch: 23 November)

Event Time Altitude Azimuth Distance (km) Brightness Sun altitude
Exits shadow 12:44:57 11° 281° (W) 2,756 4.2 -8.8°
Maximum altitude 12:48:56 17° 320° (NW) 2,314 4.0 -8.0°
Drops below altitude 10° 12:53:09 10° 360° (N) 2,830 4.8 -7.2°
Sets 12:56:53 0° 19° (NNE) 3,810 5.7 -6.5°
